GSAT-12 (37746 NORAD) Tracking and Keplerian Element Data

This shows tracking and keplerian element data for the satellite.

Feedback or suggestion? Click here.




ElementValue
Catalog37746
NameGSAT-12
Epoch Orbit4354
Epoch Day126.88825069
Epoch Year2023
RAAN91.4139
Inclination2.3292
Eccentricity0.000162
Argument of Perigee78.6665
Mean Anonmoly169.8125
Mean Motion0.98863106
Decay Rate-2.46E-06
L11 37746U 11034A 23126.88825069 -.00000246 00000+0 00000+0 0 9997
L22 37746 2.3292 91.4139 0001620 78.6665 169.8125 0.98863106 43540



Live tracking and technical data element details for GSAT-12 (NORAD 37746). GSAT-12 can be tracked NOW for your location showing map with azimuth and elevation plus other details from your city location.







IsCatalogInMostPopularTable: catalog: 37746, numindb: 378
Update: records affected: 1



GetName: 37746 GSAT-12

Hit Count: updated at: Sat, 24 May 2025 16:12:12 GMT